Wind_Speed
54 56 48 39 42 39 42 39 42 46 36 36 39 36 37 36 36 35 30 29 23 21 18 21 20 26 29 33 38 42 49 51 50 49 52 54 55 58 59 61 62 65 65 66
63 57 58 47 44 42 41 41 39 48 45 41 38 37 38 37 37 36 38 34 32 24 22 24 25 15 16 18 24 33 40 42 44 46 50 49 51 54 55 56 57 57 57 58
68 63 62 54 43 46 44 45 45 47 49 39 43 40 39 35 33 34 40 39 34 34 29 23 22 22 17 16 21 25 26 31 37 42 45 48 51 52 53 54 55 57 59 61
78 73 72 55 53 54 53 47 42 47 53 52 49 45 39 38 37 40 39 41 39 35 33 30 26 28 28 26 27 28 29 28 31 33 39 44 48 51 54 55 57 60 62 64
85 79 66 56 55 58 56 49 46 51 54 58 52 50 44 45 41 37 45 44 43 42 40 37 34 33 35 34 35 36 33 34 36 37 36 35 34 39 46 54 60 63 64 64
93 85 71 57 58 62 60 46 48 53 59 58 49 49 44 47 42 44 46 46 46 46 46 45 41 43 45 46 43 43 41 44 44 44 44 44 46 47 50 50 56 61 66 66
96 89 73 68 64 72 64 46 58 58 58 50 46 45 47 50 50 49 46 47 46 50 50 50 47 47 48 50 50 48 49 50 51 52 52 52 53 51 52 57 62 64 63 63
100 93 84 76 71 74 64 66 67 58 58 50 47 48 51 52 46 49 52 51 51 50 52 54 53 52 53 53 52 51 53 54 55 57 59 60 59 61 63 63 68 69 66 67
93 82 77 76 74 75 75 73 71 67 57 50 44 49 52 53 54 59 59 55 52 54 56 54 56 58 58 58 54 54 59 63 64 63 67 68 69 68 70 71 72 75 77 73
79 77 78 75 76 81 79 77 76 72 68 65 60 51 56 58 61 61 62 59 58 57 59 57 57 63 64 63 61 61 64 68 68 67 71 75 75 74 73 75 77 79 82 83
77 76 76 76 80 82 82 80 80 77 74 72 70 64 65 66 64 63 62 61 63 63 65 65 64 68 70 67 66 67 72 75 75 75 76 80 82 83 80 81 83 87 87 94
76 77 76 76 77 79 79 81 81 81 78 76 71 72 73 68 60 61 63 64 66 67 68 71 74 73 73 70 70 74 78 79 79 81 83 86 89 87 85 87 90 95 96 98
77 77 75 72 71 75 77 73 76 75 74 73 76 73 72 72 72 66 67 68 70 71 73 75 75 77 76 71 74 80 81 83 86 86 89 92 88 88 91 95 99 99 103 104
75 75 72 70 69 68 69 70 74 74 72 70 73 72 73 75 78 74 70 73 73 75 76 76 80 81 79 75 79 82 84 86 89 91 93 90 93 94 96 101 102 106 109 105
73 74 70 70 71 69 68 68 72 72 73 73 74 75 73 73 70 72 72 76 77 79 79 81 83 84 82 79 80 82 86 91 93 94 93 95 97 99 103 103 108 112 111 106
68 70 72 73 72 69 65 67 69 71 72 72 73 74 75 76 74 72 72 73 76 80 80 83 85 84 85 85 85 89 94 95 93 94 99 101 103 106 109 111 115 112 110 106
64 66 69 70 70 67 66 66 68 70 71 72 75 78 79 77 78 77 76 77 78 80 77 84 80 85 89 91 94 95 95 94 97 101 105 109 112 115 113 117 113 113 111 112
63 65 66 66 65 64 66 68 70 71 72 72 75 79 80 80 80 82 83 86 85 86 87 87 89 92 93 95 93 92 96 100 104 109 114 115 115 114 114 114 114 114 115 118
62 62 62 63 64 65 65 66 68 70 72 75 74 74 77 80 83 83 85 86 89 92 89 91 93 93 94 96 98 101 104 107 111 115 116 114 115 115 115 115 116 117 117 118
62 62 66 67 66 65 67 70 73 75 76 77 79 79 79 82 83 85 86 88 89 92 95 94 96 97 99 103 107 109 112 116 117 118 116 117 115 115 118 118 116 116 118 122
65 68 70 66 65 65 68 70 73 74 75 76 77 78 80 86 89 92 94 95 96 95 97 100 103 106 108 112 115 117 118 119 116 115 116 116 117 119 119 116 117 120 122 123
68 69 69 69 71 74 75 77 78 80 81 81 82 85 87 88 90 93 95 96 99 101 103 105 107 108 112 113 113 114 114 115 115 115 115 117 117 116 116 117 119 121 125 125
69 70 72 72 74 77 80 82 83 84 85 88 91 93 94 95 97 99 102 104 106 108 110 112 113 111 111 112 113 113 114 115 116 115 113 112 113 116 117 118 121 121 118 116
71 73 74 76 79 82 85 88 90 91 92 94 96 97 99 101 103 105 106 108 110 111 110 111 111 112 114 114 114 114 111 110 109 109 111 114 115 116 116 115 113 112 109 105
70 74 78 80 82 85 86 89 93 95 97 99 101 101 102 104 105 106 106 105 107 109 110 110 110 110 109 108 107 108 107 107 109 111 111 111 111 109 108 106 102 100 97 95
72 76 80 82 84 86 87 90 92 95 97 98 99 100 102 103 103 105 106 106 105 104 104 104 103 103 104 104 105 106 107 107 107 107 106 105 104 102 99 96 94 91 89 87
66 70 74 77 80 82 85 88 91 93 95 96 98 99 99 99 98 99 100 100 98 97 97 98 99 101 103 105 106 105 104 103 102 100 99 96 94 92 90 88 87 84 80 79
Wind_Direction
241 244 246 242 252 253 261 265 276 278 283 295 306 309 310 318 322 329 341 337 347 347 319 304 287 267 249 240 236 242 249 256 260 261 261 264 267 269 271 273 278 278 279 280
244 244 247 248 245 258 257 258 269 277 274 277 294 301 304 310 313 321 323 329 339 342 336 319 313 296 290 279 266 257 253 259 264 262 266 271 271 272 275 278 280 282 284 285
246 243 242 248 250 249 257 257 258 271 264 276 286 294 296 300 302 310 313 321 327 336 339 330 314 314 312 310 292 294 296 288 282 278 278 278 279 282 284 285 287 288 288 288
245 243 247 251 251 246 251 257 254 260 264 273 282 287 292 292 294 305 305 309 317 323 327 328 318 312 306 303 305 310 306 307 315 311 297 290 287 288 289 289 289 289 289 290
246 246 245 242 246 244 248 246 255 261 265 272 276 278 281 281 289 296 303 301 306 314 319 319 320 316 313 311 306 307 309 312 315 312 315 317 318 320 308 296 293 291 290 289
243 245 248 236 241 242 240 241 245 260 262 270 274 272 275 277 281 294 295 294 298 306 310 312 313 310 310 310 310 309 311 314 317 314 316 318 317 308 320 316 317 302 295 291
245 244 242 241 240 242 242 237 245 252 257 263 269 266 267 276 286 291 289 290 294 300 301 304 307 308 305 306 307 308 310 311 312 313 316 317 317 317 311 315 316 313 302 296
240 241 242 243 237 240 238 233 237 245 254 263 266 272 272 272 281 282 285 288 291 293 296 298 299 305 303 303 304 306 306 306 309 313 314 316 315 313 312 313 316 320 310 302
238 240 238 236 233 230 237 236 239 240 245 255 254 269 268 267 273 281 284 284 287 286 292 296 297 296 299 299 302 304 306 308 307 309 311 313 314 314 313 315 315 315 320 316
238 237 234 233 229 229 234 240 242 246 249 252 251 259 265 269 279 280 281 284 284 286 290 292 295 296 297 297 299 302 303 305 306 308 310 311 310 312 313 313 314 314 314 317
231 232 233 232 229 233 234 238 245 247 252 253 255 260 264 270 274 276 279 279 283 286 289 292 293 293 295 295 297 299 301 302 303 307 307 309 309 311 309 311 313 316 315 316
231 231 233 231 231 234 239 241 247 249 252 253 254 255 260 266 270 272 276 279 282 284 286 288 290 292 294 293 296 298 300 300 303 305 306 307 308 309 311 311 312 315 315 314
228 229 230 231 232 236 239 244 247 252 255 257 260 259 263 262 268 273 277 276 279 282 283 285 286 288 290 292 293 295 299 300 302 304 305 306 307 308 310 311 313 314 313 312
228 231 231 233 235 238 243 245 248 249 252 256 258 261 262 261 267 272 271 274 276 278 281 283 286 287 291 291 291 294 297 299 301 301 304 305 307 309 308 311 311 311 311 311
227 230 234 238 239 240 245 247 249 251 256 257 260 264 266 267 263 266 269 272 274 276 279 281 285 287 291 290 291 294 296 298 301 303 303 305 306 307 309 310 310 310 311 314
226 228 231 236 240 242 245 248 250 251 252 257 258 261 263 265 265 269 272 274 275 276 280 281 285 289 289 288 290 292 296 298 299 300 303 304 306 307 308 308 308 308 312 316
225 229 232 235 238 241 244 246 249 251 254 254 256 259 262 265 268 270 274 275 277 278 279 283 287 289 291 291 293 294 296 296 300 304 305 304 304 305 306 306 308 312 313 312
224 228 232 236 238 240 243 247 248 250 253 256 258 259 261 264 266 269 272 275 279 280 281 283 285 288 291 293 293 293 295 298 299 299 301 301 302 302 304 308 310 310 309 307
226 230 234 236 238 241 244 247 251 251 253 256 259 261 262 264 266 269 272 274 276 278 281 284 287 289 289 288 288 290 291 293 294 296 297 299 301 304 306 308 307 306 306 307
224 228 231 236 240 243 245 248 251 252 254 257 261 265 268 268 269 271 272 274 277 280 283 283 284 285 285 286 287 289 290 291 294 297 298 300 303 305 305 305 305 306 305 305
227 229 235 241 243 244 245 247 249 251 256 257 260 263 265 266 267 269 271 274 277 278 279 281 282 283 284 286 288 290 292 293 294 297 300 301 301 303 303 303 303 304 304 304
231 235 237 238 243 247 249 251 252 255 257 260 263 266 268 269 270 272 273 275 277 278 280 282 285 287 287 287 289 290 293 295 297 297 298 300 300 300 300 301 302 302 302 303
236 239 240 244 247 248 250 251 254 256 258 260 263 265 268 269 270 272 274 276 278 279 280 282 285 287 288 289 291 293 295 297 297 297 297 297 298 299 300 301 302 302 303 304
240 242 244 246 248 249 250 252 255 257 259 261 263 265 268 269 271 273 276 277 278 280 282 284 286 289 291 293 292 293 294 294 294 295 296 297 298 299 300 301 302 303 304 304
247 248 249 250 251 252 254 256 257 259 261 262 265 267 269 271 273 276 279 282 283 283 285 287 289 289 290 291 292 292 293 294 295 296 297 298 300 300 301 302 302 302 303 303
248 249 251 253 255 257 260 262 263 265 266 268 270 272 274 276 278 279 281 283 285 286 287 288 289 289 290 291 292 293 295 296 297 298 299 299 300 301 301 302 302 303 304 304
258 258 259 260 260 261 263 265 267 269 270 272 273 274 277 279 281 282 283 285 285 286 287 288 289 290 291 293 295 296 297 298 298 299 300 301 301 302 302 303 303 303 303 303
Height
10534 10537 10542 10548 10553 10558 10563 10568 10570 10567 10570 10564 10567 10568 10566 10567 10565 10563 10561 10559 10558 10556 10551 10547 10549 10548 10550 10553 10556 10551 10547 10543 10542 10541 10539 10533 10527 10521 10515 10510 10506 10501 10495 10489
10519 10523 10528 10535 10544 10550 10552 10557 10561 10561 10562 10559 10559 10561 10558 10558 10558 10554 10556 10554 10549 10553 10548 10542 10537 10538 10539 10537 10538 10538 10536 10533 10530 10527 10524 10519 10513 10506 10501 10497 10491 10486 10480 10475
10506 10508 10511 10526 10537 10538 10543 10546 10549 10553 10551 10550 10551 10553 10554 10551 10549 10550 10546 10545 10545 10542 10541 10538 10532 10528 10531 10530 10528 10526 10523 10519 10516 10512 10507 10502 10496 10490 10486 10481 10476 10469 10464 10458
10486 10488 10496 10522 10524 10526 10531 10534 10536 10540 10540 10539 10540 10542 10543 10542 10540 10539 10537 10536 10536 10535 10534 10532 10528 10523 10520 10520 10518 10515 10512 10508 10502 10497 10491 10485 10480 10475 10468 10463 10457 10452 10446 10441
10465 10476 10496 10506 10509 10513 10515 10522 10524 10529 10529 10529 10532 10533 10534 10530 10530 10529 10527 10523 10523 10524 10522 10521 10521 10517 10512 10509 10507 10504 10500 10495 10490 10485 10480 10475 10471 10465 10460 10452 10445 10438 10432 10427
10450 10462 10483 10494 10495 10495 10498 10517 10513 10514 10515 10519 10520 10524 10523 10518 10519 10520 10518 10514 10512 10513 10512 10508 10506 10505 10501 10496 10493 10488 10484 10480 10476 10471 10466 10461 10456 10450 10445 10438 10433 10425 10418 10413
10433 10450 10469 10477 10479 10473 10487 10513 10495 10494 10502 10507 10510 10512 10510 10508 10508 10508 10507 10506 10503 10501 10499 10497 10495 10492 10488 10484 10480 10475 10471 10466 10462 10456 10451 10445 10440 10434 10428 10421 10414 10408 10402 10394
10416 10435 10454 10457 10462 10465 10482 10477 10473 10480 10488 10495 10498 10499 10498 10498 10497 10496 10495 10494 10492 10489 10487 10485 10483 10480 10476 10471 10467 10463 10458 10452 10448 10442 10436 10430 10424 10418 10411 10403 10396 10389 10384 10377
10403 10428 10434 10435 10444 10453 10453 10460 10461 10468 10474 10480 10485 10486 10484 10484 10484 10482 10481 10481 10480 10478 10474 10473 10471 10467 10462 10458 10454 10449 10442 10436 10430 10426 10421 10413 10406 10400 10393 10386 10378 10369 10363 10356
10394 10409 10413 10419 10426 10431 10435 10441 10445 10452 10461 10465 10469 10471 10469 10472 10470 10468 10467 10468 10467 10464 10462 10460 10458 10452 10447 10442 10440 10434 10426 10419 10413 10410 10406 10396 10388 10382 10375 10368 10359 10351 10342 10336
10377 10385 10394 10404 10408 10414 10425 10429 10431 10438 10443 10450 10456 10456 10456 10456 10456 10455 10455 10455 10454 10449 10446 10445 10442 10436 10429 10425 10423 10417 10408 10401 10396 10392 10386 10379 10369 10362 10355 10347 10338 10330 10320 10311
10364 10368 10377 10389 10400 10406 10411 10415 10413 10421 10427 10432 10440 10441 10441 10441 10441 10440 10441 10440 10438 10434 10430 10428 10424 10418 10411 10407 10405 10398 10390 10383 10378 10372 10366 10358 10349 10341 10333 10324 10316 10308 10297 10288
10342 10350 10365 10378 10386 10392 10397 10399 10400 10405 10410 10416 10417 10426 10428 10426 10424 10423 10426 10425 10422 10418 10413 10409 10404 10399 10395 10391 10387 10378 10371 10364 10358 10352 10345 10338 10329 10319 10310 10302 10293 10283 10276 10267
10332 10342 10357 10368 10375 10381 10385 10388 10388 10390 10396 10401 10401 10406 10411 10410 10411 10409 10409 10408 10404 10400 10396 10392 10386 10380 10376 10372 10367 10361 10353 10345 10337 10331 10326 10316 10307 10298 10289 10279 10270 10260 10253 10241
10327 10340 10350 10355 10358 10366 10369 10374 10376 10378 10380 10384 10385 10384 10391 10391 10392 10390 10391 10389 10386 10382 10378 10374 10368 10362 10358 10352 10347 10341 10334 10326 10317 10308 10300 10293 10285 10277 10268 10258 10248 10238 10225 10212
10314 10326 10333 10337 10342 10350 10354 10357 10359 10362 10363 10364 10366 10367 10370 10371 10372 10373 10373 10371 10368 10364 10360 10354 10349 10343 10336 10331 10327 10320 10312 10304 10296 10288 10279 10269 10261 10252 10243 10232 10222 10210 10197 10183
10302 10312 10318 10323 10330 10336 10337 10341 10344 10346 10347 10350 10351 10351 10353 10354 10352 10352 10352 10349 10347 10343 10339 10332 10327 10322 10316 10309 10302 10296 10290 10281 10272 10263 10254 10245 10238 10228 10217 10208 10195 10178 10168 10157
10292 10300 10305 10311 10318 10322 10324 10326 10329 10332 10333 10334 10335 10336 10336 10335 10334 10332 10330 10326 10323 10320 10317 10313 10307 10301 10295 10287 10280 10273 10267 10258 10250 10242 10232 10222 10213 10204 10191 10179 10165 10154 10143 10136
10279 10287 10293 10298 10303 10307 10310 10312 10314 10316 10317 10317 10317 10317 10316 10315 10314 10312 10310 10306 10302 10298 10295 10291 10286 10280 10274 10267 10261 10254 10246 10237 10228 10219 10209 10198 10187 10174 10161 10151 10141 10132 10120 10107
10268 10275 10281 10285 10290 10294 10296 10297 10298 10299 10299 10299 10298 10296 10295 10294 10292 10290 10288 10285 10281 10277 10273 10268 10262 10257 10250 10243 10236 10228 10219 10209 10201 10191 10180 10170 10157 10144 10135 10125 10115 10104 10092 10080
10257 10262 10266 10270 10273 10276 10278 10279 10280 10280 10280 10280 10279 10278 10276 10274 10272 10268 10265 10262 10257 10252 10248 10242 10236 10230 10224 10216 10208 10200 10191 10182 10172 10162 10150 10138 10128 10118 10108 10098 10087 10076 10063 10050
10244 10248 10251 10254 10256 10259 10260 10261 10262 10262 10261 10260 10259 10256 10254 10251 10248 10244 10240 10235 10230 10226 10220 10214 10207 10202 10196 10187 10179 10169 10160 10152 10142 10132 10122 10111 10101 10090 10079 10068 10057 10044 10032 10019
10230 10233 10236 10239 10240 10241 10241 10242 10241 10240 10239 10238 10236 10233 10230 10227 10223 10220 10216 10210 10204 10199 10193 10186 10180 10172 10164 10157 10149 10139 10128 10119 10111 10102 10092 10081 10071 10059 10049 10037 10026 10013 9999 9985
10215 10217 10219 10221 10221 10221 10221 10220 10219 10218 10216 10214 10211 10209 10206 10202 10198 10193 10189 10183 10177 10172 10165 10157 10150 10142 10133 10125 10118 10109 10100 10092 10082 10072 10061 10050 10040 10029 10018 10006 9994 9980 9967 9954
10200 10200 10200 10200 10200 10200 10200 10198 10197 10194 10192 10189 10186 10182 10179 10175 10170 10165 10161 10156 10149 10142 10136 10129 10122 10112 10104 10097 10088 10078 10069 10061 10052 10040 10029 10018 10007 9995 9984 9974 9963 9952 9940 9928
10179 10179 10178 10177 10177 10176 10175 10173 10171 10168 10166 10163 10160 10156 10152 10147 10143 10138 10133 10127 10121 10114 10108 10099 10090 10082 10073 10064 10056 10047 10039 10030 10020 10009 9999 9988 9977 9966 9955 9944 9934 9924 9914 9905
10162 10160 10159 10157 10156 10154 10152 10150 10147 10143 10140 10137 10133 10129 10125 10121 10117 10111 10104 10098 10091 10085 10078 10070 10063 10055 10046 10036 10026 10016 10006 9997 9988 9979 9968 9958 9949 9939 9929 9919 9910 9900 9890 9881